START_TIME,STEP,MOV.,A46,t_acc.,A13,t_acc.,M47,t_acc.,A17,t_acc.,A28,t_acc.,M38,t_acc.
1979-07-24 06:00:25.000 ,0,1,,0,39.,4.8,4.,4.8,,0,0.,4.8,17.,4.8
1979-07-24 06:00:29.800 ,0,1,,0,42.,4.8,4.,4.8,,0,0.,4.8,10.,4.8
1979-07-24 06:00:34.600 ,0,1,,0,39.,4.8,10.,4.8,,0,0.,4.8,11.,4.8
1979-07-24 06:00:39.400 ,0,1,,0,0.,4.8,0.,4.8,,0,0.,4.8,35.,4.8
1979-07-24 06:00:44.200 ,0,1,,0,0.,4.8,0.,4.8,,0,0.,4.8,25.,4.8
1979-07-24 06:00:49.000 ,4,1,,0,0.,4.8,0.,4.8,,0,0.,4.8,20.,4.8
1979-07-24 06:00:53.800 ,4,1,,0,0.,4.8,0.,4.8,,0,0.,4.8,14.,4.8
1979-07-24 06:00:58.600 ,4,1,,0,8.,4.8,2.,4.8,,0,0.,4.8,15.,4.8
1979-07-24 06:01:03.400 ,4,1,,0,28.,4.8,1.,4.8,,0,0.,4.8,8.,4.8
1979-07-24 06:01:08.200 ,4,1,,0,27.,4.8,6.,4.8,,0,0.,4.8,7.,4.8
1979-07-24 06:01:13.000 ,7,1,,0,29.,4.8,1.,4.8,,0,0.,4.8,9.,4.8
1979-07-24 06:01:17.800 ,7,1,,0,25.,4.8,4.,4.8,,0,0.,4.8,17.,4.8
1979-07-24 06:01:22.600 ,7,1,,0,42.,4.8,4.,4.8,,0,0.,4.8,16.,4.8
1979-07-24 06:01:27.400 ,7,1,,0,0.,4.8,0.,4.8,,0,0.,4.8,0.,4.8
1979-07-24 06:01:32.200 ,7,1,,0,0.,4.8,0.,4.8,,0,0.,4.8,0.,4.8
1979-07-24 06:01:37.000 ,3,1,,0,0.,4.8,0.,4.8,,0,0.,4.8,14.,4.8
1979-07-24 06:01:41.800 ,3,1,,0,0.,4.8,0.,4.8,,0,0.,4.8,16.,4.8
1979-07-24 06:01:46.600 ,3,1,,0,4.,4.8,1.,4.8,,0,0.,4.8,15.,4.8
1979-07-24 06:01:51.400 ,3,1,,0,26.,4.8,4.,4.8,,0,0.,4.8,7.,4.8
1979-07-24 06:01:56.200 ,3,1,,0,28.,4.8,6.,4.8,,0,0.,4.8,6.,4.8
1979-07-24 06:02:01.000 ,0,1,,0,45.,4.8,6.,4.8,,0,0.,4.8,10.,4.8
1979-07-24 06:02:05.800 ,0,1,,0,32.,4.8,3.,4.8,,0,0.,4.8,16.,4.8
1979-07-24 06:02:10.600 ,0,1,,0,43.,4.8,7.,4.8,,0,0.,4.8,16.,4.8
1979-07-24 06:02:15.400 ,0,1,,0,0.,4.8,0.,4.8,,0,1.,4.8,25.,4.8
1979-07-24 06:02:20.200 ,0,1,,0,0.,4.8,0.,4.8,,0,0.,4.8,28.,4.8
1979-07-24 06:02:25.000 ,4,1,,0,0.,4.8,0.,4.8,,0,0.,4.8,20.,4.8
1979-07-24 06:02:29.800 ,4,1,,0,0.,4.8,0.,4.8,,0,0.,4.8,16.,4.8
1979-07-24 06:02:34.600 ,4,1,,0,3.,4.8,0.,4.8,,0,0.,4.8,12.,4.8
1979-07-24 06:02:39.400 ,4,1,,0,33.,4.8,3.,4.8,,0,0.,4.8,15.,4.8
1979-07-24 06:02:44.200 ,4,1,,0,22.,4.8,3.,4.8,,0,0.,4.8,9.,4.8
1979-07-24 06:02:49.000 ,7,1,,0,27.,4.8,5.,4.8,,0,0.,4.8,11.,4.8
1979-07-24 06:02:53.800 ,7,1,,0,29.,4.8,6.,4.8,,0,0.,4.8,7.,4.8
1979-07-24 06:02:58.600 ,7,1,,0,34.,4.8,5.,4.8,,0,0.,4.8,21.,4.8
1979-07-24 06:03:03.400 ,7,1,,0,0.,4.8,0.,4.8,,0,0.,4.8,0.,4.8
1979-07-24 06:03:08.200 ,7,1,,0,0.,4.8,0.,4.8,,0,0.,4.8,0.,4.8
1979-07-24 06:03:13.000 ,3,1,,0,0.,4.8,0.,4.8,,0,0.,4.8,12.,4.8
1979-07-24 06:03:17.800 ,3,1,,0,0.,4.8,0.,4.8,,0,1.,4.8,16.,4.8
1979-07-24 06:03:22.600 ,3,1,,0,2.,4.8,0.,4.8,,0,0.,4.8,9.,4.8
1979-07-24 06:03:27.400 ,3,1,,0,25.,4.8,5.,4.8,,0,0.,4.8,9.,4.8
1979-07-24 06:03:32.200 ,3,1,,0,35.,4.8,5.,4.8,,0,1.,4.8,14.,4.8
1979-07-24 06:03:37.000 ,0,1,,0,30.,4.8,5.,4.8,,0,0.,4.8,10.,4.8
1979-07-24 06:03:41.800 ,0,1,,0,44.,4.8,5.,4.8,,0,0.,4.8,18.,4.8
1979-07-24 06:03:46.600 ,0,1,,0,45.,4.8,11.,4.8,,0,0.,4.8,24.,4.8
1979-07-24 06:03:51.400 ,0,1,,0,0.,4.8,0.,4.8,,0,0.,4.8,26.,4.8
1979-07-24 06:03:56.200 ,0,1,,0,0.,4.8,0.,4.8,,0,0.,4.8,23.,4.8
1979-07-24 06:04:01.000 ,4,1,,0,0.,4.8,0.,4.8,,0,0.,4.8,23.,4.8
1979-07-24 06:04:05.800 ,4,1,,0,0.,4.8,0.,4.8,,0,0.,4.8,19.,4.8
1979-07-24 06:04:10.600 ,4,1,,0,6.,4.8,1.,4.8,,0,0.,4.8,8.,4.8
1979-07-24 06:04:15.400 ,4,1,,0,28.,4.8,3.,4.8,,0,0.,4.8,14.,4.8
1979-07-24 06:04:20.200 ,4,1,,0,27.,4.8,2.,4.8,,0,0.,4.8,4.,4.8
1979-07-24 06:04:25.000 ,7,1,,0,29.,4.8,1.,4.8,,0,0.,4.8,16.,4.8
1979-07-24 06:04:29.800 ,7,1,,0,38.,4.8,7.,4.8,,0,0.,4.8,14.,4.8
1979-07-24 06:04:34.600 ,7,1,,0,37.,4.8,6.,4.8,,0,0.,4.8,15.,4.8
1979-07-24 06:04:39.400 ,7,1,,0,0.,4.8,0.,4.8,,0,0.,4.8,0.,4.8
1979-07-24 06:04:44.200 ,7,1,,0,0.,4.8,0.,4.8,,0,0.,4.8,0.,4.8
1979-07-24 06:04:49.000 ,3,1,,0,0.,4.8,0.,4.8,,0,0.,4.8,12.,4.8
1979-07-24 06:04:53.800 ,3,1,,0,0.,4.8,0.,4.8,,0,0.,4.8,20.,4.8
1979-07-24 06:04:58.600 ,3,1,,0,1.,4.8,0.,4.8,,0,0.,4.8,7.,4.8
1979-07-24 06:05:03.400 ,3,1,,0,22.,4.8,3.,4.8,,0,0.,4.8,10.,4.8
1979-07-24 06:05:08.200 ,3,1,,0,35.,4.8,2.,4.8,,0,0.,4.8,15.,4.8
1979-07-24 06:05:13.000 ,0,1,,0,29.,4.8,5.,4.8,,0,0.,4.8,21.,4.8
1979-07-24 06:05:17.800 ,0,1,,0,42.,4.8,7.,4.8,,0,0.,4.8,10.,4.8
1979-07-24 06:05:22.600 ,0,1,,0,45.,4.8,7.,4.8,,0,0.,4.8,25.,4.8
1979-07-24 06:05:27.400 ,0,1,,0,0.,4.8,0.,4.8,,0,0.,4.8,27.,4.8
1979-07-24 06:05:32.200 ,0,1,,0,0.,4.8,0.,4.8,,0,0.,4.8,33.,4.8
1979-07-24 06:05:37.000 ,0,0,,0,0.,4.8,0.,4.8,,0,0.,4.8,27.,4.8
1979-07-24 06:05:41.800 ,0,0,,0,0.,4.8,0.,4.8,,0,0.,4.8,22.,4.8
1979-07-24 06:05:46.600 ,0,0,,0,4.,4.8,0.,4.8,,0,0.,4.8,13.,4.8
1979-07-24 06:05:51.400 ,0,0,,0,32.,4.8,5.,4.8,,0,0.,4.8,12.,4.8
1979-07-24 06:05:56.200 ,0,0,,0,16.,4.8,3.,4.8,,0,0.,4.8,8.,4.8
1979-07-24 06:06:01.000 ,0,0,,0,20.,4.8,7.,4.8,,0,0.,4.8,10.,4.8
1979-07-24 06:06:05.800 ,0,0,,0,28.,4.8,0.,4.8,,0,0.,4.8,10.,4.8
1979-07-24 06:06:10.600 ,0,0,,0,40.,4.8,6.,4.8,,0,0.,4.8,16.,4.8
1979-07-24 06:06:15.400 ,0,0,,0,0.,4.8,0.,4.8,,0,0.,4.8,0.,4.8
1979-07-24 06:06:20.200 ,0,0,,0,0.,4.8,0.,4.8,,0,0.,4.8,0.,4.8
1979-07-24 06:06:25.000 ,5,0,,0,0.,4.8,0.,4.8,,0,0.,4.8,16.,4.8
1979-07-24 06:06:29.800 ,5,0,,0,0.,4.8,0.,4.8,,0,0.,4.8,20.,4.8
1979-07-24 06:06:34.600 ,5,0,,0,6.,4.8,1.,4.8,,0,0.,4.8,14.,4.8
1979-07-24 06:06:39.400 ,5,0,,0,29.,4.8,2.,4.8,,0,1.,4.8,5.,4.8
1979-07-24 06:06:44.200 ,5,0,,0,24.,4.8,5.,4.8,,0,0.,4.8,12.,4.8
1979-07-24 06:06:49.000 ,5,0,,0,30.,4.8,7.,4.8,,0,0.,4.8,14.,4.8
1979-07-24 06:06:53.800 ,5,0,,0,28.,4.8,3.,4.8,,0,0.,4.8,6.,4.8
1979-07-24 06:06:58.600 ,5,0,,0,19.,4.8,2.,4.8,,0,0.,4.8,9.,4.8
1979-07-24 06:07:03.400 ,5,0,,0,0.,4.8,0.,4.8,,0,0.,4.8,7.,4.8
1979-07-24 06:07:08.200 ,5,0,,0,0.,4.8,0.,4.8,,0,0.,4.8,13.,4.8
1979-07-24 06:07:13.000 ,4,0,,0,0.,4.8,0.,4.8,,0,0.,4.8,9.,4.8
1979-07-24 06:07:17.800 ,4,0,,0,0.,4.8,0.,4.8,,0,0.,4.8,10.,4.8
1979-07-24 06:07:22.600 ,4,0,,0,4.,4.8,1.,4.8,,0,0.,4.8,7.,4.8
1979-07-24 06:07:27.400 ,4,0,,0,23.,4.8,5.,4.8,,0,1.,4.8,12.,4.8
1979-07-24 06:07:32.200 ,4,0,,0,19.,4.8,1.,4.8,,0,0.,4.8,8.,4.8
1979-07-24 06:07:37.000 ,4,0,,0,23.,4.8,4.,4.8,,0,0.,4.8,8.,4.8
1979-07-24 06:07:41.800 ,4,0,,0,21.,4.8,4.,4.8,,0,0.,4.8,6.,4.8
1979-07-24 06:07:46.600 ,4,0,,0,17.,4.8,3.,4.8,,0,0.,4.8,10.,4.8
1979-07-24 06:07:51.400 ,4,0,,0,0.,4.8,0.,4.8,,0,0.,4.8,9.,4.8
1979-07-24 06:07:56.200 ,4,0,,0,0.,4.8,0.,4.8,,0,0.,4.8,12.,4.8
1979-07-24 06:08:01.000 ,3,0,,0,0.,4.8,0.,4.8,,0,0.,4.8,5.,4.8
1979-07-24 06:08:05.800 ,3,0,,0,0.,4.8,0.,4.8,,0,0.,4.8,10.,4.8
1979-07-24 06:08:10.600 ,3,0,,0,5.,4.8,1.,4.8,,0,0.,4.8,13.,4.8
1979-07-24 06:08:15.400 ,3,0,,0,23.,4.8,3.,4.8,,0,0.,4.8,12.,4.8
1979-07-24 06:08:20.200 ,3,0,,0,32.,4.8,2.,4.8,,0,0.,4.8,11.,4.8
1979-07-24 06:08:25.000 ,3,0,,0,41.,4.8,5.,4.8,,0,0.,4.8,8.,4.8
1979-07-24 06:08:29.800 ,3,0,,0,30.,4.8,5.,4.8,,0,0.,4.8,13.,4.8
1979-07-24 06:08:34.600 ,3,0,,0,22.,4.8,2.,4.8,,0,0.,4.8,9.,4.8
1979-07-24 06:08:39.400 ,3,0,,0,0.,4.8,0.,4.8,,0,0.,4.8,10.,4.8
1979-07-24 06:08:44.200 ,3,0,,0,0.,4.8,0.,4.8,,0,0.,4.8,8.,4.8
1979-07-24 06:08:49.000 ,2,0,,0,0.,4.8,0.,4.8,,0,0.,4.8,8.,4.8
1979-07-24 06:08:53.800 ,2,0,,0,0.,4.8,0.,4.8,,0,0.,4.8,9.,4.8
1979-07-24 06:08:58.600 ,2,0,,0,6.,4.8,1.,4.8,,0,1.,4.8,13.,4.8
1979-07-24 06:09:03.400 ,2,0,,0,35.,4.8,2.,4.8,,0,0.,4.8,16.,4.8
1979-07-24 06:09:08.200 ,2,0,,0,46.,4.8,6.,4.8,,0,0.,4.8,22.,4.8
1979-07-24 06:09:13.000 ,2,0,,0,31.,4.8,5.,4.8,,0,0.,4.8,14.,4.8
1979-07-24 06:09:17.800 ,2,0,,0,36.,4.8,5.,4.8,,0,0.,4.8,16.,4.8
1979-07-24 06:09:22.600 ,2,0,,0,31.,4.8,8.,4.8,,0,0.,4.8,17.,4.8
1979-07-24 06:09:27.400 ,2,0,,0,0.,4.8,0.,4.8,,0,0.,4.8,13.,4.8
1979-07-24 06:09:32.200 ,2,0,,0,0.,4.8,0.,4.8,,0,0.,4.8,10.,4.8
1979-07-24 06:09:37.000 ,1,0,,0,0.,4.8,0.,4.8,,0,0.,4.8,20.,4.8
1979-07-24 06:09:41.800 ,1,0,,0,0.,4.8,0.,4.8,,0,0.,4.8,19.,4.8
1979-07-24 06:09:46.600 ,1,0,,0,16.,4.8,4.,4.8,,0,0.,4.8,26.,4.8
1979-07-24 06:09:51.400 ,1,0,,0,64.,4.8,8.,4.8,,0,0.,4.8,41.,4.8
1979-07-24 06:09:56.200 ,1,0,,0,60.,4.8,10.,4.8,,0,0.,4.8,24.,4.8
1979-07-24 06:10:01.000 ,1,0,,0,56.,4.8,11.,4.8,,0,0.,4.8,31.,4.8
1979-07-24 06:10:05.800 ,1,0,,0,72.,4.8,13.,4.8,,0,0.,4.8,31.,4.8
1979-07-24 06:10:10.600 ,1,0,,0,64.,4.8,9.,4.8,,0,0.,4.8,23.,4.8
1979-07-24 06:10:15.400 ,1,0,,0,0.,4.8,0.,4.8,,0,0.,4.8,18.,4.8
1979-07-24 06:10:20.200 ,1,0,,0,0.,4.8,0.,4.8,,0,0.,4.8,27.,4.8
1979-07-24 06:10:25.000 ,0,0,,0,0.,4.8,0.,4.8,,0,0.,4.8,29.,4.8
1979-07-24 06:10:29.800 ,0,0,,0,0.,4.8,0.,4.8,,0,0.,4.8,20.,4.8
1979-07-24 06:10:34.600 ,0,0,,0,8.,4.8,0.,4.8,,0,0.,4.8,27.,4.8
1979-07-24 06:10:39.400 ,0,0,,0,63.,4.8,6.,4.8,,0,0.,4.8,28.,4.8
1979-07-24 06:10:44.200 ,0,0,,0,82.,4.8,16.,4.8,,0,0.,4.8,29.,4.8
1979-07-24 06:10:49.000 ,0,0,,0,70.,4.8,10.,4.8,,0,0.,4.8,26.,4.8
1979-07-24 06:10:53.800 ,0,0,,0,80.,4.8,13.,4.8,,0,0.,4.8,28.,4.8
1979-07-24 06:10:58.600 ,0,0,,0,64.,4.8,7.,4.8,,0,0.,4.8,29.,4.8
1979-07-24 06:11:03.400 ,0,0,,0,0.,4.8,0.,4.8,,0,0.,4.8,28.,4.8
1979-07-24 06:11:08.200 ,0,0,,0,0.,4.8,0.,4.8,,0,0.,4.8,39.,4.8
1979-07-24 06:11:13.000 ,0,0,,0,0.,4.8,0.,4.8,,0,0.,4.8,22.,4.8
1979-07-24 06:11:17.800 ,0,0,,0,0.,4.8,0.,4.8,,0,0.,4.8,28.,4.8
1979-07-24 06:11:22.600 ,0,0,,0,14.,4.8,6.,4.8,,0,0.,4.8,25.,4.8
1979-07-24 06:11:27.400 ,0,0,,0,86.,4.8,11.,4.8,,0,0.,4.8,38.,4.8
1979-07-24 06:11:32.200 ,0,0,,0,88.,4.8,22.,4.8,,0,0.,4.8,38.,4.8
1979-07-24 06:11:37.000 ,0,0,,0,70.,4.8,10.,4.8,,0,0.,4.8,23.,4.8
1979-07-24 06:11:41.800 ,0,0,,0,76.,4.8,15.,4.8,,0,0.,4.8,27.,4.8
1979-07-24 06:11:46.600 ,0,0,,0,49.,4.8,8.,4.8,,0,0.,4.8,23.,4.8
1979-07-24 06:11:51.400 ,0,0,,0,0.,4.8,0.,4.8,,0,0.,4.8,47.,4.8
1979-07-24 06:11:56.200 ,0,0,,0,0.,4.8,0.,4.8,,0,0.,4.8,34.,4.8
1979-07-24 06:12:01.000 ,1,0,,0,0.,4.8,0.,4.8,,0,0.,4.8,33.,4.8
1979-07-24 06:12:05.800 ,1,0,,0,0.,4.8,0.,4.8,,0,0.,4.8,24.,4.8
1979-07-24 06:12:10.600 ,1,0,,0,9.,4.8,1.,4.8,,0,0.,4.8,36.,4.8
1979-07-24 06:12:15.400 ,1,0,,0,74.,4.8,10.,4.8,,0,0.,4.8,38.,4.8
1979-07-24 06:12:20.200 ,1,0,,0,76.,4.8,10.,4.8,,0,0.,4.8,33.,4.8
1979-07-24 06:12:25.000 ,1,0,,0,68.,4.8,10.,4.8,,0,0.,4.8,34.,4.8
1979-07-24 06:12:29.800 ,1,0,,0,70.,4.8,10.,4.8,,0,0.,4.8,40.,4.8
1979-07-24 06:12:34.600 ,1,0,,0,49.,4.8,3.,4.8,,0,0.,4.8,32.,4.8
1979-07-24 06:12:39.400 ,1,0,,0,0.,4.8,1.,4.8,,0,0.,4.8,26.,4.8
1979-07-24 06:12:44.200 ,1,0,,0,0.,4.8,0.,4.8,,0,0.,4.8,32.,4.8
1979-07-24 06:12:49.000 ,2,0,,0,0.,4.8,0.,4.8,,0,0.,4.8,35.,4.8
1979-07-24 06:12:53.800 ,2,0,,0,0.,4.8,0.,4.8,,0,0.,4.8,27.,4.8
1979-07-24 06:12:58.600 ,2,0,,0,10.,4.8,2.,4.8,,0,0.,4.8,19.,4.8
1979-07-24 06:13:03.400 ,2,0,,0,44.,4.8,5.,4.8,,0,0.,4.8,14.,4.8
1979-07-24 06:13:08.200 ,2,0,,0,46.,4.8,8.,4.8,,0,0.,4.8,25.,4.8
1979-07-24 06:13:13.000 ,2,0,,0,41.,4.8,5.,4.8,,0,0.,4.8,23.,4.8
1979-07-24 06:13:17.800 ,2,0,,0,33.,4.8,1.,4.8,,0,0.,4.8,14.,4.8
1979-07-24 06:13:22.600 ,2,0,,0,34.,4.8,1.,4.8,,0,0.,4.8,17.,4.8
1979-07-24 06:13:27.400 ,2,0,,0,1.,4.8,0.,4.8,,0,0.,4.8,14.,4.8
1979-07-24 06:13:32.200 ,2,0,,0,0.,4.8,0.,4.8,,0,0.,4.8,14.,4.8
1979-07-24 06:13:37.000 ,3,0,,0,0.,4.8,0.,4.8,,0,0.,4.8,24.,4.8
1979-07-24 06:13:41.800 ,3,0,,0,0.,4.8,0.,4.8,,0,0.,4.8,22.,4.8
1979-07-24 06:13:46.600 ,3,0,,0,5.,4.8,1.,4.8,,0,0.,4.8,9.,4.8
1979-07-24 06:13:51.400 ,3,0,,0,22.,4.8,4.,4.8,,0,0.,4.8,6.,4.8
1979-07-24 06:13:56.200 ,3,0,,0,36.,4.8,3.,4.8,,0,0.,4.8,8.,4.8
1979-07-24 06:14:01.000 ,3,0,,0,23.,4.8,2.,4.8,,0,0.,4.8,10.,4.8
1979-07-24 06:14:05.800 ,3,0,,0,36.,4.8,5.,4.8,,0,0.,4.8,19.,4.8
1979-07-24 06:14:10.600 ,3,0,,0,19.,4.8,2.,4.8,,0,0.,4.8,9.,4.8
1979-07-24 06:14:15.400 ,3,0,,0,0.,4.8,0.,4.8,,0,0.,4.8,11.,4.8
1979-07-24 06:14:20.200 ,3,0,,0,0.,4.8,0.,4.8,,0,0.,4.8,11.,4.8
1979-07-24 06:14:25.000 ,4,0,,0,0.,4.8,0.,4.8,,0,0.,4.8,12.,4.8
1979-07-24 06:14:29.800 ,4,0,,0,0.,4.8,0.,4.8,,0,0.,4.8,8.,4.8
1979-07-24 06:14:34.600 ,4,0,,0,5.,4.8,2.,4.8,,0,0.,4.8,5.,4.8
1979-07-24 06:14:39.400 ,4,0,,0,17.,4.8,1.,4.8,,0,0.,4.8,5.,4.8
1979-07-24 06:14:44.200 ,4,0,,0,24.,4.8,2.,4.8,,0,0.,4.8,11.,4.8
1979-07-24 06:14:49.000 ,4,0,,0,31.,4.8,2.,4.8,,0,0.,4.8,8.,4.8
1979-07-24 06:14:53.800 ,4,0,,0,19.,4.8,0.,4.8,,0,0.,4.8,5.,4.8
1979-07-24 06:14:58.600 ,4,0,,0,17.,4.8,2.,4.8,,0,0.,4.8,8.,4.8
1979-07-24 06:15:03.400 ,4,0,,0,0.,4.8,0.,4.8,,0,0.,4.8,8.,4.8
1979-07-24 06:15:08.200 ,4,0,,0,0.,4.8,0.,4.8,,0,0.,4.8,9.,4.8
1979-07-24 06:15:13.000 ,5,0,,0,0.,4.8,0.,4.8,,0,0.,4.8,8.,4.8
1979-07-24 06:15:17.800 ,5,0,,0,0.,4.8,0.,4.8,,0,0.,4.8,8.,4.8
1979-07-24 06:15:22.600 ,5,0,,0,4.,4.8,0.,4.8,,0,0.,4.8,11.,4.8
1979-07-24 06:15:27.400 ,5,0,,0,30.,4.8,4.,4.8,,0,0.,4.8,9.,4.8
1979-07-24 06:15:32.200 ,5,0,,0,21.,4.8,6.,4.8,,0,0.,4.8,7.,4.8
1979-07-24 06:15:37.000 ,5,0,,0,26.,4.8,5.,4.8,,0,0.,4.8,10.,4.8
1979-07-24 06:15:41.800 ,5,0,,0,22.,4.8,6.,4.8,,0,0.,4.8,12.,4.8
1979-07-24 06:15:46.600 ,5,0,,0,23.,4.8,4.,4.8,,0,0.,4.8,5.,4.8
1979-07-24 06:15:51.400 ,5,0,,0,0.,4.8,0.,4.8,,0,0.,4.8,14.,4.8
1979-07-24 06:15:56.200 ,5,0,,0,0.,4.8,0.,4.8,,0,0.,4.8,15.,4.8
1979-07-24 06:16:01.000 ,6,0,,0,0.,4.8,0.,4.8,,0,0.,4.8,9.,4.8
1979-07-24 06:16:05.800 ,6,0,,0,0.,4.8,0.,4.8,,0,0.,4.8,17.,4.8
1979-07-24 06:16:10.600 ,6,0,,0,6.,4.8,0.,4.8,,0,0.,4.8,22.,4.8
1979-07-24 06:16:15.400 ,6,0,,0,44.,4.8,10.,4.8,,0,0.,4.8,17.,4.8
1979-07-24 06:16:20.200 ,6,0,,0,38.,4.8,11.,4.8,,0,0.,4.8,17.,4.8
1979-07-24 06:16:25.000 ,6,0,,0,39.,4.8,3.,4.8,,0,0.,4.8,21.,4.8
1979-07-24 06:16:29.800 ,6,0,,0,38.,4.8,6.,4.8,,0,0.,4.8,24.,4.8
1979-07-24 06:16:34.600 ,6,0,,0,29.,4.8,5.,4.8,,0,0.,4.8,19.,4.8
1979-07-24 06:16:39.400 ,6,0,,0,0.,4.8,0.,4.8,,0,0.,4.8,20.,4.8
1979-07-24 06:16:44.200 ,6,0,,0,0.,4.8,1.,4.8,,0,0.,4.8,19.,4.8
1979-07-24 06:16:49.000 ,7,0,,0,0.,4.8,0.,4.8,,0,0.,4.8,20.,4.8
1979-07-24 06:16:53.800 ,7,0,,0,0.,4.8,0.,4.8,,0,0.,4.8,17.,4.8
1979-07-24 06:16:58.600 ,7,0,,0,3.,4.8,0.,4.8,,0,0.,4.8,0.,4.8
1979-07-24 06:17:03.400 ,7,0,,0,11.,4.8,0.,4.8,,0,0.,4.8,0.,4.8
1979-07-24 06:17:08.200 ,7,0,,0,13.,4.8,0.,4.8,,0,0.,4.8,0.,4.8
1979-07-24 06:17:13.000 ,7,0,,0,11.,4.8,0.,4.8,,0,0.,4.8,0.,4.8
1979-07-24 06:17:17.800 ,7,0,,0,11.,4.8,0.,4.8,,0,0.,4.8,0.,4.8
1979-07-24 06:17:22.600 ,7,0,,0,11.,4.8,0.,4.8,,0,0.,4.8,0.,4.8
1979-07-24 06:17:27.400 ,7,0,,0,0.,4.8,1.,4.8,,0,0.,4.8,0.,4.8
1979-07-24 06:17:32.200 ,7,0,,0,0.,4.8,0.,4.8,,0,0.,4.8,0.,4.8
1979-07-24 06:17:37.000 ,7,0,,0,0.,4.8,0.,4.8,,0,0.,4.8,0.,4.8
1979-07-24 06:17:41.800 ,7,0,,0,0.,4.8,0.,4.8,,0,0.,4.8,0.,4.8
1979-07-24 06:17:46.600 ,7,0,,0,3.,4.8,1.,4.8,,0,0.,4.8,0.,4.8
1979-07-24 06:17:51.400 ,7,0,,0,7.,4.8,0.,4.8,,0,0.,4.8,0.,4.8
1979-07-24 06:17:56.200 ,7,0,,0,11.,4.8,0.,4.8,,0,0.,4.8,0.,4.8
1979-07-24 06:18:01.000 ,7,0,,0,13.,4.8,0.,4.8,,0,0.,4.8,0.,4.8
1979-07-24 06:18:05.800 ,7,0,,0,12.,4.8,0.,4.8,,0,0.,4.8,0.,4.8
1979-07-24 06:18:10.600 ,7,0,,0,10.,4.8,0.,4.8,,0,0.,4.8,0.,4.8
1979-07-24 06:18:15.400 ,7,0,,0,0.,4.8,0.,4.8,,0,0.,4.8,0.,4.8
1979-07-24 06:18:20.200 ,7,0,,0,0.,4.8,0.,4.8,,0,0.,4.8,0.,4.8
1979-07-24 06:18:25.000 ,6,0,,0,0.,4.8,0.,4.8,,0,0.,4.8,0.,4.8
1979-07-24 06:18:29.800 ,6,0,,0,0.,4.8,0.,4.8,,0,0.,4.8,5.,4.8
1979-07-24 06:18:34.600 ,6,0,,0,8.,4.8,3.,4.8,,0,0.,4.8,21.,4.8
1979-07-24 06:18:39.400 ,6,0,,0,53.,4.8,4.,4.8,,0,0.,4.8,23.,4.8
1979-07-24 06:18:44.200 ,6,0,,0,43.,4.8,13.,4.8,,0,0.,4.8,22.,4.8
1979-07-24 06:18:49.000 ,6,0,,0,46.,4.8,4.,4.8,,0,0.,4.8,17.,4.8
1979-07-24 06:18:53.800 ,6,0,,0,38.,4.8,5.,4.8,,0,0.,4.8,23.,4.8
1979-07-24 06:18:58.600 ,6,0,,0,26.,4.8,5.,4.8,,0,0.,4.8,18.,4.8
1979-07-24 06:19:03.400 ,6,0,,0,0.,4.8,0.,4.8,,0,0.,4.8,14.,4.8
1979-07-24 06:19:08.200 ,6,0,,0,0.,4.8,0.,4.8,,0,0.,4.8,23.,4.8
1979-07-24 06:19:13.000 ,5,0,,0,0.,4.8,1.,4.8,,0,0.,4.8,16.,4.8
1979-07-24 06:19:17.800 ,5,0,,0,0.,4.8,0.,4.8,,0,0.,4.8,16.,4.8
1979-07-24 06:19:22.600 ,5,0,,0,7.,4.8,2.,4.8,,0,0.,4.8,7.,4.8
1979-07-24 06:19:27.400 ,5,0,,0,26.,4.8,4.,4.8,,0,0.,4.8,7.,4.8
1979-07-24 06:19:32.200 ,5,0,,0,23.,4.8,6.,4.8,,0,0.,4.8,9.,4.8
1979-07-24 06:19:37.000 ,5,0,,0,35.,4.8,7.,4.8,,0,0.,4.8,13.,4.8
1979-07-24 06:19:41.800 ,5,0,,0,31.,4.8,4.,4.8,,0,0.,4.8,7.,4.8
1979-07-24 06:19:46.600 ,5,0,,0,16.,4.8,2.,4.8,,0,0.,4.8,7.,4.8
1979-07-24 06:19:51.400 ,5,0,,0,0.,4.8,0.,4.8,,0,0.,4.8,8.,4.8
1979-07-24 06:19:56.200 ,5,0,,0,0.,4.8,1.,4.8,,0,0.,4.8,6.,4.8
1979-07-24 06:20:01.000 ,4,0,,0,0.,4.8,0.,4.8,,0,0.,4.8,9.,4.8
1979-07-24 06:20:05.800 ,4,0,,0,0.,4.8,0.,4.8,,0,0.,4.8,8.,4.8
1979-07-24 06:20:10.600 ,4,0,,0,1.,4.8,0.,4.8,,0,1.,4.8,8.,4.8
1979-07-24 06:20:15.400 ,4,0,,0,19.,4.8,4.,4.8,,0,0.,4.8,8.,4.8
1979-07-24 06:20:20.200 ,4,0,,0,22.,4.8,2.,4.8,,0,0.,4.8,4.,4.8
1979-07-24 06:20:25.000 ,4,0,,0,24.,4.8,2.,4.8,,0,0.,4.8,5.,4.8
1979-07-24 06:20:29.800 ,4,0,,0,20.,4.8,1.,4.8,,0,0.,4.8,6.,4.8
1979-07-24 06:20:34.600 ,4,0,,0,18.,4.8,1.,4.8,,0,0.,4.8,7.,4.8
1979-07-24 06:20:39.400 ,4,0,,0,0.,4.8,0.,4.8,,0,0.,4.8,7.,4.8
1979-07-24 06:20:44.200 ,4,0,,0,0.,4.8,0.,4.8,,0,0.,4.8,6.,4.8
1979-07-24 06:20:49.000 ,3,0,,0,0.,4.8,0.,4.8,,0,0.,4.8,9.,4.8
1979-07-24 06:20:53.800 ,3,0,,0,0.,4.8,0.,4.8,,0,0.,4.8,7.,4.8
1979-07-24 06:20:58.600 ,3,0,,0,9.,4.8,3.,4.8,,0,0.,4.8,10.,4.8
1979-07-24 06:21:03.400 ,3,0,,0,28.,4.8,1.,4.8,,0,0.,4.8,8.,4.8
1979-07-24 06:21:08.200 ,3,0,,0,27.,4.8,3.,4.8,,0,0.,4.8,13.,4.8
1979-07-24 06:21:13.000 ,3,0,,0,27.,4.8,4.,4.8,,0,0.,4.8,15.,4.8
1979-07-24 06:21:17.800 ,3,0,,0,32.,4.8,3.,4.8,,0,0.,4.8,19.,4.8
1979-07-24 06:21:22.600 ,3,0,,0,18.,4.8,1.,4.8,,0,0.,4.8,11.,4.8
1979-07-24 06:21:27.400 ,3,0,,0,0.,4.8,0.,4.8,,0,0.,4.8,6.,4.8
1979-07-24 06:21:32.200 ,3,0,,0,0.,4.8,0.,4.8,,0,0.,4.8,12.,4.8
1979-07-24 06:21:37.000 ,2,0,,0,0.,4.8,0.,4.8,,0,0.,4.8,11.,4.8
1979-07-24 06:21:41.800 ,2,0,,0,0.,4.8,0.,4.8,,0,0.,4.8,12.,4.8
1979-07-24 06:21:46.600 ,2,0,,0,9.,4.8,1.,4.8,,0,0.,4.8,22.,4.8
1979-07-24 06:21:51.400 ,2,0,,0,50.,4.8,10.,4.8,,0,0.,4.8,9.,4.8
1979-07-24 06:21:56.200 ,2,0,,0,47.,4.8,10.,4.8,,0,0.,4.8,10.,4.8
1979-07-24 06:22:01.000 ,2,0,,0,44.,4.8,6.,4.8,,0,0.,4.8,20.,4.8
1979-07-24 06:22:05.800 ,2,0,,0,35.,4.8,3.,4.8,,0,0.,4.8,15.,4.8
1979-07-24 06:22:10.600 ,2,0,,0,41.,4.8,8.,4.8,,0,0.,4.8,25.,4.8
1979-07-24 06:22:15.400 ,2,0,,0,0.,4.8,0.,4.8,,0,0.,4.8,14.,4.8
1979-07-24 06:22:20.200 ,2,0,,0,0.,4.8,0.,4.8,,0,0.,4.8,15.,4.8
1979-07-24 06:22:25.000 ,1,0,,0,0.,4.8,0.,4.8,,0,1.,4.8,21.,4.8
1979-07-24 06:22:29.800 ,1,0,,0,0.,4.8,0.,4.8,,0,0.,4.8,20.,4.8
1979-07-24 06:22:34.600 ,1,0,,0,4.,4.8,1.,4.8,,0,0.,4.8,24.,4.8
1979-07-24 06:22:39.400 ,1,0,,0,64.,4.8,13.,4.8,,0,0.,4.8,39.,4.8
1979-07-24 06:22:44.200 ,1,0,,0,57.,4.8,7.,4.8,,0,0.,4.8,31.,4.8
1979-07-24 06:22:49.000 ,1,0,,0,59.,4.8,9.,4.8,,0,0.,4.8,35.,4.8
1979-07-24 06:22:53.800 ,1,0,,0,45.,4.8,7.,4.8,,0,0.,4.8,23.,4.8
1979-07-24 06:22:58.600 ,1,0,,0,53.,4.8,15.,4.8,,0,0.,4.8,32.,4.8
1979-07-24 06:23:03.400 ,1,0,,0,0.,4.8,0.,4.8,,0,0.,4.8,33.,4.8
1979-07-24 06:23:08.200 ,1,0,,0,0.,4.8,0.,4.8,,0,0.,4.8,14.,4.8
1979-07-24 06:23:13.000 ,0,0,,0,0.,4.8,0.,4.8,,0,0.,4.8,22.,4.8
1979-07-24 06:23:17.800 ,0,0,,0,0.,4.8,0.,4.8,,0,0.,4.8,30.,4.8
1979-07-24 06:23:22.600 ,0,0,,0,18.,4.8,4.,4.8,,0,0.,4.8,35.,4.8
1979-07-24 06:23:27.400 ,0,0,,0,80.,4.8,12.,4.8,,0,0.,4.8,41.,4.8
1979-07-24 06:23:32.200 ,0,0,,0,86.,4.8,10.,4.8,,0,0.,4.8,38.,4.8
1979-07-24 06:23:37.000 ,0,0,,0,78.,4.8,10.,4.8,,0,0.,4.8,36.,4.8
1979-07-24 06:23:41.800 ,0,0,,0,78.,4.8,15.,4.8,,0,0.,4.8,30.,4.8
1979-07-24 06:23:46.600 ,0,0,,0,76.,4.8,13.,4.8,,0,0.,4.8,34.,4.8
1979-07-24 06:23:51.400 ,0,0,,0,0.,4.8,0.,4.8,,0,0.,4.8,34.,4.8
1979-07-24 06:23:56.200 ,0,0,,0,0.,4.8,0.,4.8,,0,0.,4.8,31.,4.8
1979-07-24 06:24:01.000 ,0,0,,0,0.,4.8,0.,4.8,,0,0.,4.8,43.,4.8
1979-07-24 06:24:05.800 ,0,0,,0,0.,4.8,0.,4.8,,0,0.,4.8,34.,4.8
1979-07-24 06:24:10.600 ,0,0,,0,11.,4.8,0.,4.8,,0,0.,4.8,31.,4.8
1979-07-24 06:24:15.400 ,0,0,,0,74.,4.8,16.,4.8,,0,0.,4.8,30.,4.8
1979-07-24 06:24:20.200 ,0,0,,0,90.,4.8,15.,4.8,,0,0.,4.8,35.,4.8
1979-07-24 06:24:25.000 ,0,0,,0,84.,4.8,19.,4.8,,0,0.,4.8,39.,4.8
1979-07-24 06:24:29.800 ,0,0,,0,86.,4.8,22.,4.8,,0,0.,4.8,38.,4.8
1979-07-24 06:24:34.600 ,0,0,,0,68.,4.8,16.,4.8,,0,0.,4.8,34.,4.8
1979-07-24 06:24:39.400 ,0,0,,0,0.,4.8,0.,4.8,,0,0.,4.8,42.,4.8
1979-07-24 06:24:44.200 ,0,0,,0,0.,4.8,0.,4.8,,0,0.,4.8,35.,4.8
1979-07-24 06:24:49.000 ,1,0,,0,0.,4.8,0.,4.8,,0,0.,4.8,39.,4.8
1979-07-24 06:24:53.800 ,1,0,,0,0.,4.8,0.,4.8,,0,0.,4.8,42.,4.8
1979-07-24 06:24:58.600 ,1,0,,0,11.,4.8,1.,4.8,,0,0.,4.8,28.,4.8
1979-07-24 06:25:03.400 ,1,0,,0,55.,4.8,14.,4.8,,0,0.,4.8,29.,4.8
1979-07-24 06:25:08.200 ,1,0,,0,53.,4.8,9.,4.8,,0,0.,4.8,28.,4.8
1979-07-24 06:25:13.000 ,1,0,,0,70.,4.8,7.,4.8,,0,0.,4.8,29.,4.8
1979-07-24 06:25:17.800 ,1,0,,0,49.,4.8,4.,4.8,,0,0.,4.8,24.,4.8
1979-07-24 06:25:22.600 ,1,0,,0,53.,4.8,8.,4.8,,0,0.,4.8,31.,4.8
1979-07-24 06:25:27.400 ,1,0,,0,0.,4.8,0.,4.8,,0,0.,4.8,40.,4.8
1979-07-24 06:25:32.200 ,1,0,,0,0.,4.8,0.,4.8,,0,0.,4.8,26.,4.8
1979-07-24 06:25:37.000 ,2,0,,0,0.,4.8,0.,4.8,,0,0.,4.8,25.,4.8
1979-07-24 06:25:41.800 ,2,0,,0,0.,4.8,0.,4.8,,0,1.,4.8,32.,4.8
1979-07-24 06:25:46.600 ,2,0,,0,3.,4.8,0.,4.8,,0,0.,4.8,15.,4.8
1979-07-24 06:25:51.400 ,2,0,,0,38.,4.8,8.,4.8,,0,0.,4.8,15.,4.8
1979-07-24 06:25:56.200 ,2,0,,0,37.,4.8,7.,4.8,,0,0.,4.8,12.,4.8
1979-07-24 06:26:01.000 ,2,0,,0,51.,4.8,10.,4.8,,0,1.,4.8,18.,4.8
1979-07-24 06:26:05.800 ,2,0,,0,41.,4.8,6.,4.8,,0,0.,4.8,17.,4.8
1979-07-24 06:26:10.600 ,2,0,,0,36.,4.8,8.,4.8,,0,0.,4.8,23.,4.8
1979-07-24 06:26:15.400 ,2,0,,0,0.,4.8,0.,4.8,,0,0.,4.8,21.,4.8
1979-07-24 06:26:20.200 ,2,0,,0,0.,4.8,0.,4.8,,0,0.,4.8,19.,4.8
1979-07-24 06:26:25.000 ,3,0,,0,0.,4.8,0.,4.8,,0,0.,4.8,10.,4.8
1979-07-24 06:26:29.800 ,3,0,,0,0.,4.8,0.,4.8,,0,0.,4.8,21.,4.8
1979-07-24 06:26:34.600 ,3,0,,0,4.,4.8,1.,4.8,,0,0.,4.8,12.,4.8
1979-07-24 06:26:39.400 ,3,0,,0,27.,4.8,4.,4.8,,0,0.,4.8,7.,4.8
1979-07-24 06:26:44.200 ,3,0,,0,28.,4.8,4.,4.8,,0,0.,4.8,17.,4.8
1979-07-24 06:26:49.000 ,3,0,,0,29.,4.8,9.,4.8,,0,0.,4.8,15.,4.8
1979-07-24 06:26:53.800 ,3,0,,0,26.,4.8,6.,4.8,,0,0.,4.8,10.,4.8
1979-07-24 06:26:58.600 ,3,0,,0,28.,4.8,2.,4.8,,0,0.,4.8,6.,4.8
1979-07-24 06:27:03.400 ,3,0,,0,0.,4.8,0.,4.8,,0,0.,4.8,18.,4.8
1979-07-24 06:27:08.200 ,3,0,,0,0.,4.8,0.,4.8,,0,0.,4.8,13.,4.8
1979-07-24 06:27:13.000 ,4,0,,0,0.,4.8,0.,4.8,,0,0.,4.8,15.,4.8
1979-07-24 06:27:17.800 ,4,0,,0,0.,4.8,0.,4.8,,0,0.,4.8,11.,4.8
1979-07-24 06:27:22.600 ,4,0,,0,4.,4.8,0.,4.8,,0,0.,4.8,8.,4.8
1979-07-24 06:27:27.400 ,4,0,,0,19.,4.8,2.,4.8,,0,0.,4.8,7.,4.8
1979-07-24 06:27:32.200 ,4,0,,0,26.,4.8,2.,4.8,,0,0.,4.8,8.,4.8
1979-07-24 06:27:37.000 ,4,0,,0,18.,4.8,0.,4.8,,0,0.,4.8,10.,4.8
1979-07-24 06:27:41.800 ,4,0,,0,24.,4.8,6.,4.8,,0,0.,4.8,4.,4.8
1979-07-24 06:27:46.600 ,4,0,,0,22.,4.8,3.,4.8,,0,0.,4.8,7.,4.8
1979-07-24 06:27:51.400 ,4,0,,0,0.,4.8,0.,4.8,,0,0.,4.8,11.,4.8
1979-07-24 06:27:56.200 ,4,0,,0,0.,4.8,0.,4.8,,0,0.,4.8,12.,4.8
1979-07-24 06:28:01.000 ,5,0,,0,1.,4.8,0.,4.8,,0,0.,4.8,11.,4.8
1979-07-24 06:28:05.800 ,5,0,,0,0.,4.8,0.,4.8,,0,0.,4.8,6.,4.8
1979-07-24 06:28:10.600 ,5,0,,0,1.,4.8,0.,4.8,,0,0.,4.8,7.,4.8
1979-07-24 06:28:15.400 ,5,0,,0,27.,4.8,2.,4.8,,0,0.,4.8,13.,4.8
1979-07-24 06:28:20.200 ,5,0,,0,28.,4.8,8.,4.8,,0,0.,4.8,12.,4.8
1979-07-24 06:28:25.000 ,5,0,,0,29.,4.8,5.,4.8,,0,0.,4.8,14.,4.8
1979-07-24 06:28:29.800 ,5,0,,0,30.,4.8,10.,4.8,,0,0.,4.8,12.,4.8
1979-07-24 06:28:34.600 ,5,0,,0,25.,4.8,6.,4.8,,0,0.,4.8,11.,4.8
1979-07-24 06:28:39.400 ,5,0,,0,0.,4.8,0.,4.8,,0,0.,4.8,7.,4.8
1979-07-24 06:28:44.200 ,5,0,,0,0.,4.8,0.,4.8,,0,0.,4.8,9.,4.8
1979-07-24 06:28:49.000 ,6,0,,0,0.,4.8,0.,4.8,,0,0.,4.8,11.,4.8
1979-07-24 06:28:53.800 ,6,0,,0,0.,4.8,0.,4.8,,0,0.,4.8,11.,4.8
1979-07-24 06:28:58.600 ,6,0,,0,7.,4.8,0.,4.8,,0,0.,4.8,9.,4.8
1979-07-24 06:29:03.400 ,6,0,,0,45.,4.8,5.,4.8,,0,0.,4.8,14.,4.8
1979-07-24 06:29:08.200 ,6,0,,0,42.,4.8,6.,4.8,,0,0.,4.8,19.,4.8
1979-07-24 06:29:13.000 ,6,0,,0,28.,4.8,5.,4.8,,0,0.,4.8,12.,4.8
1979-07-24 06:29:17.800 ,6,0,,0,34.,4.8,10.,4.8,,0,0.,4.8,13.,4.8
1979-07-24 06:29:22.600 ,6,0,,0,35.,4.8,3.,4.8,,0,0.,4.8,15.,4.8
1979-07-24 06:29:27.400 ,6,0,,0,0.,4.8,0.,4.8,,0,0.,4.8,13.,4.8
1979-07-24 06:29:32.200 ,6,0,,0,0.,4.8,0.,4.8,,0,0.,4.8,16.,4.8
1979-07-24 06:29:37.000 ,7,0,,0,0.,4.8,0.,4.8,,0,0.,4.8,13.,4.8